#timestamp,LO_Frequency,Hit,Temp,Hum 
1487984415.1,286046830.6,N,0.0,0.0
1487984435.9,286046831.8,N,0.0,0.0
1487984455.7,286046833.5,N,0.0,0.0
1487984475.5,286046836.3,N,0.0,0.0
1487984495.4,286046838.3,N,0.0,0.0
1487984515.2,286046836.7,N,0.0,0.0
1487984535.0,286046837.5,N,0.0,0.0
1487984535.9,286046837.5,N,0.0,0.0
1487984555.8,286046838.0,N,0.0,0.0
1487984575.6,286046839.6,N,0.0,0.0
1487984595.4,286046837.3,N,0.0,0.0
1487984615.3,286046837.1,N,0.0,0.0
1487984635.1,286046837.6,N,0.0,0.0
1487984636.0,286046837.6,N,0.0,0.0
1487984655.8,286046836.2,N,0.0,0.0
1487984675.7,286046835.0,N,0.0,0.0
1487984695.5,286046838.5,N,0.0,0.0
1487984715.3,286046840.0,N,0.0,0.0
1487984735.2,286046842.8,N,0.0,0.0
1487984755.9,286046841.4,N,0.0,0.0
1487984775.7,286046842.4,N,0.0,0.0
1487984795.6,286046842.7,N,0.0,0.0
1487984815.4,286046844.1,N,0.0,0.0
1487984835.2,286046844.0,N,0.0,0.0
1487984855.0,286046844.1,N,0.0,0.0
1487984855.9,286046844.1,N,0.0,0.0
1487984875.8,286046839.9,N,0.0,0.0
1487984895.6,286046838.5,N,0.0,0.0
1487984915.4,286046838.5,N,0.0,0.0
1487984935.3,286046839.2,N,0.0,0.0
1487984955.1,286046837.4,N,0.0,0.0
1487984975.8,286046836.9,N,0.0,0.0
1487984995.7,286046839.5,N,0.0,0.0
1487985015.5,286046840.5,N,0.0,0.0
1487985035.3,286046840.4,N,0.0,0.0
1487985055.2,286046842.6,N,0.0,0.0
1487985075.9,286046843.4,N,0.0,0.0
1487985095.7,286046843.5,N,0.0,0.0
1487985115.6,286046843.4,N,0.0,0.0
1487985135.4,286046846.0,N,0.0,0.0
1487985155.2,286046844.1,N,0.0,0.0
1487985175.1,286046842.5,N,0.0,0.0
1487985176.0,286046842.5,N,0.0,0.0
1487985195.8,286046840.3,N,0.0,0.0
1487985215.6,286046840.1,N,0.0,0.0
1487985235.5,286046840.9,N,0.0,0.0
1487985255.3,286046842.2,N,0.0,0.0
1487985275.1,286046841.0,N,0.0,0.0
1487985295.8,286046842.0,N,0.0,0.0
1487985315.7,286046842.7,N,0.0,0.0
1487985335.5,286046842.6,N,0.0,0.0
1487985355.3,286046842.2,N,0.0,0.0
1487985375.2,286046843.6,N,0.0,0.0
1487985395.0,286046845.6,N,0.0,0.0
1487985395.9,286046845.6,N,0.0,0.0
1487985415.7,286046845.3,N,0.0,0.0
1487985435.6,286046848.1,N,0.0,0.0
1487985455.4,286046850.6,N,0.0,0.0
1487985475.2,286046848.4,N,0.0,0.0
1487985495.1,286046848.8,N,0.0,0.0
1487985496.0,286046848.8,N,0.0,0.0
1487985515.8,286046850.0,N,0.0,0.0
1487985535.6,286046849.6,N,0.0,0.0
1487985555.5,286046849.8,N,0.0,0.0
1487985575.3,286046852.7,N,0.0,0.0
1487985595.1,286046852.1,N,0.0,0.0
1487985615.9,286046846.3,N,0.0,0.0
1487985635.7,286046846.9,N,0.0,0.0
1487985655.5,286046850.3,N,0.0,0.0
1487985675.4,286046853.1,N,0.0,0.0
1487985695.2,286046850.5,N,0.0,0.0
1487985715.0,286046849.6,N,0.0,0.0
1487985715.9,286046849.6,N,0.0,0.0
1487985735.8,286046850.7,N,0.0,0.0
1487985755.6,286046850.5,N,0.0,0.0
1487985775.4,286046850.0,N,0.0,0.0
1487985795.3,286046849.6,N,0.0,0.0
1487985815.1,286046852.4,N,0.0,0.0
1487985816.0,286046852.4,N,0.0,0.0
1487985835.8,286046849.0,N,0.0,0.0
1487985855.7,286046846.4,N,0.0,0.0
1487985875.5,286046848.7,N,0.0,0.0
1487985895.3,286046844.6,N,0.0,0.0
1487985915.2,286046846.9,N,0.0,0.0
1487985935.9,286046846.6,N,0.0,0.0
1487985955.7,286046845.4,N,0.0,0.0
1487985975.5,286046843.7,N,0.0,0.0
1487985995.4,286046847.2,N,0.0,0.0
1487986015.2,286046845.2,N,0.0,0.0
1487986035.0,286046845.1,N,0.0,0.0
1487986035.9,286046845.1,N,0.0,0.0
1487986055.8,286046846.4,N,0.0,0.0
1487986075.6,286046844.7,N,0.0,0.0
1487986095.4,286046846.9,N,0.0,0.0
1487986115.3,286046846.3,N,0.0,0.0
1487986135.1,286046847.6,N,0.0,0.0
1487986155.8,286046845.2,N,0.0,0.0
1487986175.7,286046846.5,N,0.0,0.0
1487986195.5,286046848.2,N,0.0,0.0
1487986215.3,286046846.5,N,0.0,0.0
1487986235.2,286046848.0,N,0.0,0.0
1487986255.9,286046849.0,N,0.0,0.0
1487986275.7,286046849.0,N,0.0,0.0
1487986295.6,286046848.2,N,0.0,0.0
1487986315.4,286046850.3,N,0.0,0.0
1487986335.2,286046850.8,N,0.0,0.0
1487986355.1,286046850.6,N,0.0,0.0
1487986356.0,286046850.6,N,0.0,0.0
1487986375.8,286046848.4,N,0.0,0.0
1487986395.6,286046849.6,N,0.0,0.0
1487986415.5,286046848.8,N,0.0,0.0
1487986435.3,286046846.1,N,0.0,0.0
1487986455.1,286046847.0,N,0.0,0.0
1487986475.9,286046848.4,N,0.0,0.0
1487986495.7,286046851.3,N,0.0,0.0
1487986515.5,286046849.3,N,0.0,0.0
1487986535.4,286046853.2,N,0.0,0.0
1487986555.2,286046852.5,N,0.0,0.0
1487986575.0,286046855.2,N,0.0,0.0
1487986575.9,286046855.2,N,0.0,0.0
1487986595.8,286046854.0,N,0.0,0.0
1487986615.6,286046853.9,N,0.0,0.0
1487986635.4,286046851.5,N,0.0,0.0
1487986655.2,286046851.4,N,0.0,0.0
1487986675.1,286046851.3,N,0.0,0.0
1487986676.0,286046851.3,N,0.0,0.0
1487986695.8,286046851.4,N,0.0,0.0
1487986715.6,286046852.0,N,0.0,0.0
1487986735.5,286046850.8,N,0.0,0.0
1487986755.3,286046853.7,N,0.0,0.0
1487986775.1,286046867.6,N,0.0,0.0
1487986795.9,286046813.4,N,0.0,0.0
1487986815.7,286046846.6,N,0.0,0.0
1487986835.5,286046852.2,N,0.0,0.0
1487986855.4,286046848.4,N,0.0,0.0
1487986875.2,286046845.6,N,0.0,0.0
1487986895.0,286046850.7,N,0.0,0.0
1487986895.9,286046850.7,N,0.0,0.0
1487986915.8,286046850.5,N,0.0,0.0
1487986935.6,286046849.1,N,0.0,0.0
1487986955.4,286046852.3,N,0.0,0.0
1487986975.3,286046849.8,N,0.0,0.0
1487986995.1,286046849.7,N,0.0,0.0
1487986996.0,286046849.7,N,0.0,0.0
1487987015.8,286046855.0,N,0.0,0.0
1487987035.7,286046857.0,N,0.0,0.0
1487987055.5,286046853.8,N,0.0,0.0
1487987075.3,286046851.4,N,0.0,0.0
1487987095.2,286046855.5,N,0.0,0.0
1487987115.9,286046856.4,N,0.0,0.0
1487987135.7,286046852.6,N,0.0,0.0
1487987155.6,286046843.1,N,0.0,0.0
1487987175.4,286046850.3,N,0.0,0.0
1487987195.2,286046852.9,N,0.0,0.0
1487987215.0,286046848.5,N,0.0,0.0
1487987216.0,286046848.5,N,0.0,0.0
1487987235.8,286046849.5,N,0.0,0.0
1487987255.6,286046852.0,N,0.0,0.0
1487987275.4,286046850.0,N,0.0,0.0
1487987295.3,286046849.6,N,0.0,0.0
1487987315.1,286046850.5,N,0.0,0.0
1487987335.8,286046850.3,N,0.0,0.0
1487987355.7,286046851.9,N,0.0,0.0
1487987375.5,286046851.3,N,0.0,0.0
1487987395.3,286046851.0,N,0.0,0.0
1487987415.2,286046856.2,N,0.0,0.0
1487987435.9,286046856.0,N,0.0,0.0
1487987455.7,286046854.9,N,0.0,0.0
1487987475.6,286046857.2,N,0.0,0.0
1487987495.4,286046855.4,N,0.0,0.0
1487987515.2,286046857.1,N,0.0,0.0
1487987535.1,286046851.3,N,0.0,0.0
1487987536.0,286046851.3,N,0.0,0.0
1487987555.8,286046869.4,N,0.0,0.0
1487987575.6,286046817.5,N,0.0,0.0
1487987595.5,286046851.1,N,0.0,0.0
1487987615.3,286046853.1,N,0.0,0.0
1487987635.1,286046853.2,N,0.0,0.0
1487987655.9,286046843.3,N,0.0,0.0
1487987675.7,286046860.2,N,0.0,0.0
1487987695.5,286046860.4,N,0.0,0.0
1487987715.4,286046858.9,N,0.0,0.0
1487987735.2,286046855.2,N,0.0,0.0
1487987755.0,286046852.0,N,0.0,0.0
1487987755.9,286046852.0,N,0.0,0.0
1487987775.8,286046848.2,Y,0.0,0.0
1487987795.6,286047005.1,N,0.0,0.0
1487987815.4,286047006.3,N,0.0,0.0
1487987835.3,286047011.1,N,0.0,0.0
1487987855.1,286047009.3,N,0.0,0.0
1487987875.8,286047009.8,N,0.0,0.0
1487987895.7,286047008.2,N,0.0,0.0
1487987915.5,286047011.5,N,0.0,0.0
1487987935.3,286047010.1,N,0.0,0.0
1487987955.2,286047011.9,N,0.0,0.0
1487987975.9,286047012.3,N,0.0,0.0
1487987995.7,286047014.0,N,0.0,0.0
